Location: Bondula
(6.3703°N, 10.6756°W)
Time: 04:16:09
(UTC+00:00)

GPS 2-15 Rocket1 - Pass Details

Date: 22 October 2019
Orbit: 624 x 675 km, 19.8° (Epoch: 13 November)

Event Time Altitude Azimuth Distance (km) Brightness Sun altitude
Exits shadow 05:18:01 23° 330° (NNW) 1,333 4.4 -18.1°
Maximum altitude 05:18:53 24° 348° (NNW) 1,287 4.5 -17.9°
Drops below altitude 10° 05:22:41 10° 42° (NE) 1,994 6.1 -17.0°
Sets 05:25:25 0° 56° (NE) 2,909 7.3 -16.3°
